sat.trackr.live / text

‹ back to catalog

KUIPER-00072

NORAD 64819 · 2025-151D

PAYLOAD ACTIVE UNKNOWN

§ Identity

Operator
Country
US
Launch date
2025-07-16
Launch site
AFETR
Launch vehicle
Mass (kg)
RCS (m²)

External: N2YO · Heavens-Above · Gunter

§ Orbital elements

Epoch: 2026-05-25T03:43:28.301088Z

Period
97.30 min
Inclination
51.8965°
Eccentricity
0.0000707
Mean motion
14.79935746 rev/d
Perigee alt
629.0 km
Apogee alt
630.0 km
Semi-major
7,007.7 km
B*
3.0751e-4
RAAN
304.9193°
Arg perigee
126.5752°
Mean anomaly
233.5276°
Rev number
4,687

§ Raw data

KUIPER-000721 64819U 25151D   26145.15518867  .00002124  00000+0  30751-3 0  99982 64819  51.8965 304.9193 0000707 126.5752 233.5276 14.79935746 46873

JSON: /api/v1/satellites/64819 · /tle

For live sub-satellite position, see the globe view (requires WebGL).

§ Visibility from observer

Set your observer location to see the next 7 days of passes ≥ 10°. The values pass through the URL so the page stays shareable.

No JS? Fill the form by hand. The geolocation button needs JavaScript.